Tracking 21473 objects as of 27-Sep-2020
HD Live streaming from Space Station
objects crossing your sky now

STARLINK-1457

Track STARLINK-1457 now!
10-day predictions
STARLINK-1457 is classified as:


NORAD ID: 45674
Int'l Code: 2020-035T
Perigee: 555.9 km
Apogee: 557.9 km
Inclination: 53.0 °
Period: 95.6 minutes
Semi major axis: 6927 km
RCS: Unknown
Launch date: June 4, 2020
Source: United States (US)
Launch site: AIR FORCE EASTERN TEST RANGE (AFETR)
aabbcc
Your satellite tracking list
Your tracking list is empty




NASA's NSSDC Master Catalog

Two Line Element Set (TLE):
1 45674U 20035T   20271.58337963 +.00009842 +00000-0 +69414-3 0  9992
2 45674 053.0004 356.0644 0001458 117.2533 156.8208 15.05555800001755
Source of the keplerian elements: AFSPC